Location: Bamazo
(6.7448°N, 10.8189°W)
Time: 04:06:39
(UTC+00:00)

Okean-O - Pass Details

Date: 18 September 2020
Orbit: 639 x 641 km, 98.2° (Epoch: 23 October)

Event Time Altitude Azimuth Distance (km) Brightness Sun altitude
Rises 19:32:34 0° 167° (SSE) 2,936 5.9 -13.6°
Reaches altitude 10° 19:34:46 10° 167° (SSE) 2,027 5.0 -14.1°
Maximum altitude 19:39:11 87° 81° (E) 644 2.5 -15.2°
Drops below altitude 10° 19:43:36 10° 349° (N) 2,024 5.4 -16.3°
Sets 19:45:48 0° 349° (N) 2,932 6.2 -16.9°
